Location: Unspecified
(0.0000°N, 0.0000°E)
Time: 19:55:00
(UTC+00:00)

STARLINK-1770 - Visible Passes

Search period start: 12 January 2025 00:00
Search period end: 22 January 2025 00:00
Orbit: 546 x 548 km, 53.1° (Epoch: 12 January)

Date Brightness Start Highest point End Pass type
(mag) Time Alt. Az. Time Alt. Az. Time Alt. Az.
20 Jan 6.8 20:46:23 10° SW 20:46:39 12° SW 20:46:39 12° SW visible
21 Jan 5.8 19:03:16 10° SE 19:04:15 11° SE 19:05:04 10° ESE visible
21 Jan 6.5 20:39:44 10° SW 20:40:40 16° WSW 20:40:40 16° WSW visible
